{"data":{"norad_id":62268,"intl_designator":"2024-237B","name":"STARLINK-11501 [DTC]","alt_names":[],"object_type":"PAYLOAD","status":"ACTIVE","operator":null,"country":"US","launch_date":"2024-12-08","launch_site_code":"AFETR","launch_vehicle":null,"mission":null,"orbit_class":"UNKNOWN","rcs_meters":null,"size_class":null,"mass_kg":null,"dimensions":null,"purposes":["comms"],"wikipedia_slug":null,"has_3d_model":false,"image_url":null,"decayed_at":null,"tle_current":{"epoch":"2026-09-21T14:10:13.309248Z","epoch_age_seconds":83475,"freshness":"FRESH","line1":"1 62268U 24237B   26264.59043182  .00137971  00000+0  10601-2 0  9991","line2":"2 62268  42.9997 315.6741 0001303 243.4220 116.6514 15.70859394103815","mean_motion":15.70859394,"eccentricity":0.0001303,"inclination_deg":42.9997,"raan_deg":315.6741,"arg_perigee_deg":243.422,"mean_anomaly_deg":116.6514,"bstar":0.0010601,"rev_number":10381,"period_min":91.669566703435,"perigee_km":355.56211512227,"apogee_km":357.31714579217,"semimajor_km":6734.5766304572,"source":"CELESTRAK","updated_at":"2026-09-22T09:00:49.565739Z"}}}